Location: Hillern
(53.0557°N, 9.8577°E)
Time: 23:14:53
(UTC+00:00)

Cosmos 2082 Rocket - Pass Details

Date: 19 May 2025
Orbit: 831 x 853 km, 71.0° (Epoch: 22 June)

Event Time Altitude Azimuth Distance (km) Brightness Sun altitude
Exits shadow 19:59:58 - 127° (SE) 2,756 4.2 -5.5°
Reaches altitude 10° 20:02:05 10° 108° (ESE) 2,443 4.1 -5.7°
Maximum altitude 20:03:24 11° 94° (E) 2,386 4.1 -5.9°
Drops below altitude 10° 20:04:43 10° 80° (E) 2,449 4.3 -6.0°
Sets 20:09:20 0° 46° (NE) 3,395 5.4 -6.5°
